2021 EH4
ephemeris date magn radius delta ra dec elong phase
Today15 Oct 202527.71.311 AU1.230 AU09h07m+29°18'71.3°46.1°
2021 EH4 - 2025-10-15
astro.vanbuitenen.nl


 
-1 year
-1 month
-1 day
Now
+1 day
+1 month
+1 year

The interactive orbit chart above shows the body's path through the solar system and its position at the given date. Green and blue lines are shown perpendicular to the ecliptic plane: Green if the path is above the ecliptic plane, blue if it is below. (Left-click and drag to rotate the view; Right-click and drag to move the view; Use scroll wheel to zoom in our out.)

The orbital elements of 2021 EH4 are:

            e (Eccentricity)                : 0.1465040
            a (Semimajor axis)              : 1.1506344
            i (Inclination)                 : 12.28581
            Ω (Longitude of ascending node) : 14.50740
            ω (Argument of perihelion)      : 233.80670
            M (Mean anomaly)                : 70.63023
            Epoch                           : 2025 May 05

            L (Longitude of perihelion)     : 67.67933
            B (Latitude of perihelion)      : -9.88822
            P (Orbital period in years)     : 1.23            
        

The light curve chart below shows the estimated development of the minor planet's magnitude.


The all-sky chart below shows the path of the minor planet over the same period as the light curve. The current position is marked yellow.





The following chart shows the path of the minor planet in the next few days. The field of view is optimized for (~10x50) binoculars and finderscopes. A more printer-friendly version of the same chart can be found below.




Ephemerides:
Date       Time       RA (2000)    DEC (2000)    delta   radius  elong  phase   PA    magn
2025-10-15 00:00 UT   09 07 59.4   +29 18 25     1.230    1.311   71.3   46.1   292   27.7 
2025-10-15 05:59 UT   09 08 48.8   +29 16 45     1.228    1.311   71.3   46.1   292   27.7 
2025-10-16 00:00 UT   09 11 17.6   +29 11 39     1.223    1.310   71.5   46.2   292   27.7 
2025-10-17 00:00 UT   09 14 35.5   +29 04 40     1.217    1.309   71.8   46.3   292   27.7 
2025-10-18 00:00 UT   09 17 53.2   +28 57 28     1.210    1.309   72.0   46.4   292   27.7 
2025-10-19 00:00 UT   09 21 10.6   +28 50 04     1.204    1.308   72.3   46.5   292   27.7 
2025-10-20 00:00 UT   09 24 27.7   +28 42 28     1.197    1.307   72.5   46.6   293   27.7 
2025-10-21 00:00 UT   09 27 44.6   +28 34 40     1.191    1.307   72.8   46.7   293   27.7 
2025-10-22 00:00 UT   09 31 01.2   +28 26 39     1.184    1.306   73.0   46.8   293   27.7 
2025-10-23 00:00 UT   09 34 17.5   +28 18 27     1.178    1.305   73.3   46.9   293   27.6 
2025-10-24 00:00 UT   09 37 33.5   +28 10 02     1.171    1.304   73.5   47.0   293   27.6 
2025-10-25 00:00 UT   09 40 49.2   +28 01 26     1.165    1.303   73.8   47.1   294   27.6 
2025-10-26 00:00 UT   09 44 04.6   +27 52 37     1.158    1.302   74.0   47.2   294   27.6 


    Terminology:
            
    delta:  distance between minor planet and earth in AU
    radius: distance between minor planet and sun in AU
    magn:   magnitude (brightness) estimate    
    ra:     right ascension in hours (24h = 360deg)
    dec:    declination in degrees
    elong:  elongation in degrees (angle sun-earth-minor planet)    
    phase:  phase angle in degrees (angle sun-minor planet-earth)        
    AU:     Astronomical Unit (mean distance between earth and sun: 149597870.7 km
    

Orbital elements provided by the MPC (Minor Planet Center).
Calculations by a modified version of AAPlus, a C# implementation of the AA+ project by PJ Naughter from the algorithms presented in the book "Astronomical Algorithms" by Jean Meeus.
NGC2000 dso catalog and star labels from VizieR as provided by the Strasbourg astronomical Data Center.
Tycho2 catalog from the ESO archive.